KE9LZ Weather Reports


time (UTC)temp
F
wind
direction
speed
knots
gust
knots
rain 1hr
in
rain 24hr
in
rain mn
in
humidity
%
barometer
mb
20260902185003 81 339 2.6 5.2 0.00 0.46 0.46 71 1016.2
20260902183003 80 328 1.7 4.3 0.00 0.46 0.46 71 1016.5
20260902182004 77 316 1.7 7.8 0.00 0.46 0.46 76 1016.6
20260902181004 79 259 1.7 4.3 0.00 0.46 0.46 74 1016.8
20260902180006 77 335 1.7 5.2 0.00 0.46 0.46 76 1016.8
20260902174003 76 272 2.6 2.6 0.00 0.46 0.46 79 1016.8
20260902171004 74 77 0.9 5.2 0.00 0.46 0.46 82 1016.9
20260902170004 74 161 1.7 2.6 0.00 0.46 0.46 83 1016.8
20260902164003 73 179 1.7 2.6 0.00 0.46 0.46 85 1017.2
20260902162004 72 196 1.7 1.7 0.00 0.46 0.46 88 1017.3
20260902161004 71 233 0.9 1.7 0.00 0.46 0.46 90 1016.9
20260902160003 70 128 0.9 1.7 0.00 0.46 0.46 91 1017.1
20260902155003 70 49 0.9 1.7 0.00 0.46 0.46 92 1017.1
20260902153003 69 85 0.9 1.7 0.00 0.46 0.46 94 1017.1
20260902151003 68 82 0.0 2.6 0.00 0.46 0.46 97 1016.9
20260902150003 68 124 1.7 2.6 0.00 0.46 0.46 98 1016.8
20260902145003 67 44 2.6 4.3 0.00 0.46 0.46 98 1017.1
20260902144003 67 162 2.6 4.3 0.00 0.46 0.46 98 1016.6
20260902143003 67 33 1.7 2.6 0.00 0.46 0.46 99 1016.4
20260902142003 66 94 1.7 2.6 0.00 0.46 0.46 99 1017.1
20260902141003 66 159 0.9 5.2 0.01 0.46 0.46 99 1018.1
20260902140003 66 8 1.7 5.2 0.02 0.46 0.46 99 1018.3
20260902135004 66 305 1.7 4.3 0.02 0.46 0.46 99 1018.4
20260902134003 66 301 1.7 2.6 0.02 0.46 0.46 99 1018.3
20260902133003 65 146 1.7 2.6 0.02 0.46 0.46 99 1017.6
20260902132004 65 133 0.9 4.3 0.01 0.46 0.46 99 1017.8
20260902131003 65 150 0.9 2.6 0.01 0.46 0.46 99 1017.4
20260902130003 65 302 0.9 2.6 0.00 0.45 0.45 99 1018.0
20260902125003 65 294 1.7 2.6 0.00 0.45 0.45 99 1017.3
20260902124003 65 295 1.7 2.6 0.00 0.45 0.45 99 1016.7
20260902122002 65 113 1.7 2.6 0.00 0.45 0.45 99 1016.9
20260902121003 65 144 0.9 2.6 0.00 0.45 0.45 99 1017.1
20260902120003 65 181 0.9 2.6 0.00 0.45 0.45 99 1017.0
20260902115003 65 14 0.9 2.6 0.00 0.45 0.45 99 1017.2
20260902113004 65 107 1.7 2.6 0.02 0.45 0.45 99 1017.3
20260902110005 65 81 1.7 4.3 0.36 0.44 0.44 99 1017.9
20260902105003 65 174 1.7 4.3 0.36 0.44 0.44 99 1018.6
20260902104003 65 67 1.7 2.6 0.37 0.44 0.44 99 1019.2
20260902103003 65 113 1.7 6.1 0.43 0.43 0.43 98 1019.6
20260902102003 66 14 4.3 17.4 0.39 0.40 0.40 97 1019.0
20260902101004 69 289 12.2 26.1 0.12 0.13 0.13 93 1021.3
20260902095003 73 353 5.2 13.0 0.07 0.08 0.08 98 1016.5
20260902094003 73 320 1.7 5.2 0.07 0.08 0.08 97 1015.4
20260902093003 73 84 0.9 2.6 0.00 0.01 0.01 96 1015.1
20260902092003 74 82 1.7 2.6 0.00 0.01 0.01 96 1015.3
20260902091004 74 76 1.7 2.6 0.01 0.01 0.01 95 1015.9
20260902090004 74 90 1.7 4.3 0.01 0.01 0.01 94 1016.6
20260902085004 74 183 0.9 1.7 0.01 0.01 0.01 94 1016.8
20260902084003 74 224 0.9 1.7 0.01 0.01 0.01 93 1016.6
20260902083003 74 325 1.7 4.3 0.01 0.01 0.01 92 1016.4
20260902082003 75 280 0.9 2.6 0.00 0.00 0.00 89 1016.1
20260902080003 76 117 0.9 2.6 0.00 0.00 0.00 85 1016.1
20260902075003 75 186 0.9 1.7 0.00 0.00 0.00 86 1015.9
20260902074004 75 113 1.7 4.3 0.00 0.00 0.00 86 1016.2
20260902073003 76 160 1.7 4.3 0.00 0.00 0.00 86 1016.3
20260902072003 75 128 0.9 1.7 0.00 0.00 0.00 85 1015.6
20260902071004 75 96 0.0 0.9 0.00 0.00 0.00 85 1015.9
20260902070004 75 153 0.0 0.9 0.00 0.00 0.00 86 1016.1
20260902065003 76 337 0.0 1.7 0.00 0.00 0.00 85 1015.9
20260902064003 76 33 0.0 0.9 0.00 0.00 0.00 83 1015.8
20260902063003 77 65 0.0 1.7 0.00 0.00 0.00 81 1015.8
20260902062003 77 144 0.0 1.7 0.00 0.00 0.00 81 1016.2
20260902060003 77 89 0.0 0.9 0.00 0.00 0.00 80 1016.5
20260902055003 78 77 0.0 1.7 0.00 0.00 0.00 80 1016.1
20260902054004 78 302 0.9 2.6 0.00 0.00 0.00 79 1016.2
20260902053004 78 189 0.9 1.7 0.00 0.00 0.00 79 1016.0
20260902052004 79 231 0.9 2.6 0.00 0.00 0.00 78 1016.0
20260902050005 80 274 0.9 1.7 0.00 0.00 0.00 77 1015.7
20260902045003 80 247 1.7 2.6 0.00 0.00 0.00 77 1015.7
20260902044003 81 225 0.9 4.3 0.00 0.00 0.00 76 1015.8
20260902043003 81 246 2.6 6.1 0.00 0.00 0.00 76 1015.9
20260902042003 81 212 1.7 5.2 0.00 0.00 0.00 77 1015.7
20260902040003 82 255 1.7 5.2 0.00 0.00 0.00 77 1015.8
20260902035003 82 221 2.6 5.2 0.00 0.00 0.00 79 1015.9
20260902034003 82 258 2.6 6.1 0.00 0.00 0.00 81 1015.8
20260902033004 82 228 2.6 7.0 0.00 0.00 0.00 81 1015.9
20260902032003 82 225 3.5 6.1 0.00 0.00 0.00 82 1015.7
20260902031003 82 212 2.6 5.2 0.00 0.00 0.00 82 1015.3
20260902025003 82 206 2.6 5.2 0.00 0.00 0.00 84 1015.4
20260902023003 82 191 1.7 4.3 0.00 0.00 0.00 83 1015.5
20260902022003 82 194 1.7 4.3 0.00 0.00 0.00 82 1015.3
20260902021003 83 202 2.6 6.1 0.00 0.00 0.00 81 1015.4
20260902020003 83 205 3.5 6.1 0.00 0.00 0.00 80 1015.4
20260902015004 84 196 1.7 4.3 0.00 0.00 0.00 80 1015.3
20260902014003 84 219 1.7 4.3 0.00 0.00 0.00 79 1015.1
20260902013004 84 219 1.7 4.3 0.00 0.00 0.00 80 1015.4
20260902012004 85 195 0.9 4.3 0.00 0.00 0.00 79 1015.2
20260902011004 85 214 1.7 4.3 0.00 0.00 0.00 78 1015.0
20260902010002 85 233 0.9 2.6 0.00 0.00 0.00 78 1014.8
20260902005003 85 227 0.9 4.3 0.00 0.00 0.00 78 1014.7
20260902004003 85 215 0.9 4.3 0.00 0.00 0.00 77 1014.9
20260902003003 86 277 1.7 2.6 0.00 0.00 0.00 76 1014.7
20260902001003 86 188 1.7 5.2 0.00 0.00 0.00 75 1014.4
20260901235003 87 222 2.6 7.0 0.00 0.00 0.00 72 1014.5
20260901233003 88 206 3.5 6.1 0.00 0.00 0.00 68 1014.4
20260901231003 90 227 4.3 7.8 0.00 0.00 0.00 65 1014.5
20260901230004 91 233 3.5 10.4 0.00 0.00 0.00 64 1014.8
20260901224003 90 201 4.3 7.8 0.00 0.00 0.00 66 1014.7
20260901223004 90 199 2.6 8.7 0.00 0.00 0.00 66 1014.8
20260901222003 90 183 2.6 6.1 0.00 0.00 0.00 66 1014.8
20260901221003 90 210 2.6 7.8 0.00 0.00 0.00 64 1014.8
20260901220003 91 193 5.2 11.3 0.00 0.00 0.00 63 1014.5
20260901215003 92 273 4.3 7.8 0.00 0.00 0.00 61 1014.8
20260901214003 92 245 3.5 7.0 0.00 0.00 0.00 61 1014.9
20260901212004 92 213 1.7 6.1 0.00 0.00 0.00 63 1014.8
20260901211003 90 193 0.9 6.1 0.00 0.00 0.00 67 1015.0
20260901210003 91 229 2.6 7.0 0.00 0.00 0.00 64 1015.0
20260901205003 91 220 2.6 7.0 0.00 0.00 0.00 64 1015.1
20260901204003 91 215 4.3 7.8 0.00 0.00 0.00 63 1015.0
20260901203003 91 226 2.6 7.0 0.00 0.00 0.00 64 1014.9
20260901201003 91 262 4.3 7.8 0.00 0.00 0.00 66 1015.4
20260901200004 91 222 4.3 6.1 0.00 0.00 0.00 65 1015.3
20260901195003 90 200 2.6 5.2 0.00 0.00 0.00 68 1015.3
20260901193004 90 191 2.6 7.8 0.00 0.00 0.00 66 1015.7
20260901192003 91 259 4.3 7.8 0.00 0.00 0.00 66 1015.6
20260901191004 91 230 3.5 7.0 0.00 0.00 0.00 65 1015.8
20260901190003 90 307 1.7 6.1 0.00 0.00 0.00 68 1015.8